Everett, WA

7:18 PM PST on December 08, 2019 (GMT -0800)
Snohomish County

Weather History for KPAE - October, 2019

Change the Weather History Date:

Wednesday, October 23, 2019

  Actual Average Record
Temperature  
Mean Temperature 48 °F -  
Max Temperature 53 °F 56 °F 78 °F (2007)
Min Temperature 44 °F 41 °F 31 °F (1984)
Degree Days  
Heating Degree Days 17    
Moisture  
Dew Point 44 °F    
Average Humidity 88    
Maximum Humidity 97    
Minimum Humidity 71    
Precipitation  
Precipitation 0.00 in - - ()
Sea Level Pressure  
Sea Level Pressure 30.49 in    
Wind  
Wind Speed 3 mph (NNE)    
Max Wind Speed 6 mph    
Max Gust Speed -    
Visibility 9 miles    
Events Fog    
Averages and records for this station are not official NWS values.
T = Trace of Precipitation, MM = Missing Value Source: NWS Daily Summary

Daily Weather History Graph

Daily Weather History Graph

Search for Another Location

Airport or City:

Astronomy

Oct. 23, 2019 Rise Set
Actual Time 7:40 AM PDT 6:06 PM PDT
Civil Twilight 7:08 AM PDT 6:37 PM PDT
Nautical Twilight 6:32 AM PDT 7:13 PM PDT
Astronomical Twilight 5:56 AM PDT 7:49 PM PDT
Moon 1:32 AM PDT (10/23) 4:28 PM PDT (10/23)
Length of Visible Light 11h 29m
Length of Day
10h 26m
Waning Crescent, 25% of the Moon is Illuminated
Oct 23
Waning Crescent
Oct 27
New
Nov 4
First Quarter
Nov 12
Full
Nov 19
Last Quarter

Hourly Weather History & Observations

Time (PDT) Temp. Windchill Dew Point Humidity Pressure Visibility Wind Dir Wind Speed Gust Speed Precip Events Conditions
12:53 AM 48.0 °F - 45.0 °F 89% 30.47 in 10.0 mi North 5.8 mph - N/A   Clear
1:53 AM 46.9 °F - 45.0 °F 93% 30.46 in 10.0 mi North 3.5 mph - N/A   Clear
2:53 AM 45.0 °F 43.5 °F 44.1 °F 97% 30.47 in 10.0 mi North 3.5 mph - N/A   Clear
3:53 AM 44.1 °F - 43.0 °F 96% 30.48 in 10.0 mi Calm Calm - N/A   Clear
4:53 AM 45.0 °F 43.5 °F 44.1 °F 97% 30.48 in 10.0 mi NE 3.5 mph - N/A   Clear
5:53 AM 44.1 °F - 43.0 °F 96% 30.49 in 9.0 mi Calm Calm - N/A   Clear
6:59 AM 45.0 °F 43.5 °F 43.0 °F 93% 30.49 in 8.0 mi ENE 3.5 mph - N/A   Mostly Cloudy
7:36 AM 46.0 °F - 44.1 °F 93% 30.49 in 5.0 mi Calm Calm - N/A   Overcast
7:53 AM 45.0 °F 43.5 °F 44.1 °F 97% 30.51 in 5.0 mi North 3.5 mph - N/A   Overcast
8:53 AM 46.9 °F - 45.0 °F 93% 30.52 in 10.0 mi Calm Calm - N/A   Clear
9:31 AM 48.0 °F - 46.0 °F 93% 30.52 in 0.2 mi Calm Calm - N/A Fog Fog
9:45 AM 46.0 °F 43.9 °F 43.0 °F 89% 30.52 in 10.0 mi ESE 4.6 mph - N/A   Mostly Cloudy
9:53 AM 46.0 °F 43.9 °F 44.1 °F 93% 30.53 in 10.0 mi East 4.6 mph - N/A   Mostly Cloudy
10:07 AM 46.9 °F - 44.1 °F 90% 30.52 in 10.0 mi East 3.5 mph - N/A   Scattered Clouds
10:53 AM 50.0 °F - 44.1 °F 80% 30.53 in 10.0 mi NNW 3.5 mph - N/A   Partly Cloudy
11:53 AM 51.1 °F - 44.1 °F 77% 30.54 in 10.0 mi NNW 5.8 mph - N/A   Partly Cloudy
12:53 PM 52.0 °F - 43.0 °F 71% 30.52 in 10.0 mi North 5.8 mph - N/A   Scattered Clouds
1:53 PM 52.0 °F - 43.0 °F 71% 30.51 in 10.0 mi NNW 5.8 mph - N/A   Clear
2:53 PM 52.0 °F - 44.1 °F 74% 30.49 in 10.0 mi North 5.8 mph - N/A   Clear
3:53 PM 52.0 °F - 44.1 °F 74% 30.49 in 10.0 mi North 5.8 mph - N/A   Clear
4:53 PM 51.1 °F - 44.1 °F 77% 30.50 in 10.0 mi North 5.8 mph - N/A   Clear
5:53 PM 50.0 °F - 44.1 °F 80% 30.48 in 10.0 mi North 3.5 mph - N/A   Clear
6:53 PM 48.0 °F - 44.1 °F 86% 30.48 in 10.0 mi Variable 3.5 mph - N/A   Clear
7:53 PM 46.0 °F 44.8 °F 43.0 °F 89% 30.48 in 10.0 mi North 3.5 mph - N/A   Clear
8:53 PM 46.0 °F 44.8 °F 43.0 °F 89% 30.48 in 10.0 mi North 3.5 mph - N/A   Clear
9:53 PM 46.0 °F - 44.1 °F 93% 30.46 in 10.0 mi Calm Calm - N/A   Scattered Clouds
10:53 PM 46.0 °F - 44.1 °F 93% 30.46 in 10.0 mi Calm Calm - N/A   Partly Cloudy
11:53 PM 44.1 °F - 42.1 °F 93% 30.45 in 8.0 mi Calm Calm - N/A   Clear